Find Starlink 30518

NORAD ID: 58029 Int'l Des: 2023-156 Owner: SPXS Country: US Constellation: starlink operational
LEOCIRCULAR

实时位置

正在加载3D地球...

关于 Starlink 30518

正在加载描述...

即将过境

Passes for default location (London). Set your location on the main map for personalized predictions.

高度历史

Loading altitude history...

两行轨道根数

1 58029U 23156B 26125.48884036 .00000717 00000-0 36337-4 0 9999
2 58029 53.1601 174.4519 0001147 75.9031 284.2097 15.30204858145010
Epoch: May 5, 2026 • Age: 9 hours

当前状态

高度 475.4 km
速度 7.63 km/s
星下点 9.49°N, 177.4°E
发射日期 Oct 9, 2023
运行时间 2.5 years
类型 internet

技术详情

分类 Payload
质量 730.00 kg
干质量 700.00 kg
总质量 730.00 kg
长度 0.30 m
直径 4.10 m
跨度 29.00 m
形状 Box + pan
制造商 SPXS
平台类型 Starlink V2M
阶段状态 In Orbit
所有者/国家 SPXS/US

Most Searched